EW9960 Weather Reports


time (UTC)temp
C
wind
direction
speed
KPH
gust
KPH
rain 1hr
cm
rain 24hr
cm
rain mn
cm
humidity
%
barometer
mb
20260906121537 21 94 0.0 3.2 0.00 0.00 0.00 32 1016.1
20260906120048 21 320 0.0 4.8 0.00 0.00 0.00 34 1016.1
20260906114528 22 332 0.0 4.8 0.00 0.00 0.00 37 1016.0
20260906113043 22 244 0.0 1.6 0.00 0.00 0.00 34 1015.6
20260906111554 22 348 0.0 0.0 0.00 0.00 0.00 41 1015.3
20260906110016 22 6 0.0 0.0 0.00 0.00 0.00 46 1014.9
20260906104536 22 6 0.0 0.0 0.00 0.00 0.00 50 1014.9
20260906103053 22 347 0.0 1.6 0.00 0.00 0.00 53 1014.8
20260906101513 22 347 0.0 1.6 0.00 0.00 0.00 54 1014.5
20260906100037 22 347 0.0 4.8 0.00 0.00 0.00 57 1014.4
20260906094605 23 346 0.0 0.0 0.00 0.00 0.00 60 1014.2
20260906093024 23 34 0.0 0.0 0.00 0.00 0.00 63 1014.1
20260906091550 23 34 0.0 0.0 0.00 0.00 0.00 64 1014.1
20260906090020 23 76 0.0 0.0 0.00 0.00 0.00 65 1014.0
20260906084547 23 342 0.0 0.0 0.00 0.00 0.00 65 1014.0
20260906083021 23 165 0.0 3.2 0.00 0.00 0.00 65 1014.0
20260906081554 23 295 0.0 1.6 0.00 0.00 0.00 63 1014.0
20260906080019 24 295 0.0 0.0 0.00 0.00 0.00 66 1013.8
20260906074542 24 295 0.0 0.0 0.00 0.00 0.00 69 1013.8
20260906073100 25 294 0.0 0.0 0.00 0.00 0.00 72 1013.7
20260906073002 25 295 0.0 0.0 0.00 0.00 0.00 72 1013.7
20260906071526 25 294 0.0 1.6 0.00 0.00 0.00 72 1013.8
20260906070040 25 297 0.0 0.0 0.00 0.00 0.00 74 1014.0
20260906064508 25 297 0.0 0.0 0.00 0.00 0.00 74 1014.1
20260906063026 26 297 0.0 0.0 0.00 0.00 0.00 75 1014.2
20260906061555 26 305 0.0 4.8 0.00 0.00 0.00 75 1014.1
20260906060023 26 321 0.0 1.6 0.00 0.00 0.00 75 1014.4
20260906054607 26 7 0.0 3.2 0.00 0.00 0.00 75 1014.3
20260906053025 27 153 0.0 4.8 0.00 0.00 0.00 75 1014.2
20260906051559 27 122 0.0 4.8 0.00 0.00 0.00 75 1014.2
20260906050022 27 326 0.0 3.2 0.00 0.00 0.00 74 1014.0
20260906044526 26 143 0.0 1.6 0.00 0.00 0.00 74 1014.0
20260906043043 26 237 0.0 0.0 0.00 0.00 0.00 73 1013.8
20260906041549 26 63 0.0 0.0 0.00 0.00 0.00 74 1013.8
20260906040001 26 63 0.0 0.0 0.00 0.00 0.00 75 1013.7
20260906034603 26 63 0.0 0.0 0.00 0.00 0.00 75 1013.5
20260906033007 26 63 0.0 0.0 0.00 0.00 0.00 75 1013.5
20260906031524 26 63 0.0 0.0 0.00 0.00 0.00 76 1013.2
20260906030031 26 63 0.0 0.0 0.00 0.00 0.00 76 1013.1
20260906024555 26 63 0.0 0.0 0.00 0.00 0.00 76 1013.1
20260906023028 26 63 0.0 0.0 0.00 0.00 0.00 76 1012.9
20260906021537 26 63 0.0 0.0 0.00 0.00 0.00 75 1012.7
20260906020053 27 63 0.0 0.0 0.00 0.00 0.00 75 1012.6
20260906014508 27 63 0.0 0.0 0.00 0.00 0.00 75 1012.4
20260906013028 27 63 0.0 0.0 0.00 0.00 0.00 73 1012.3
20260906011534 28 63 0.0 0.0 0.00 0.00 0.00 72 1012.2
20260906010009 28 63 0.0 0.0 0.00 0.00 0.00 71 1012.1
20260906004553 29 63 0.0 3.2 0.00 0.00 0.00 68 1012.0
20260906003008 30 205 0.0 0.0 0.00 0.00 0.00 66 1011.8
20260906001554 30 205 0.0 0.0 0.00 0.00 0.00 65 1011.9
20260906000048 31 205 0.0 0.0 0.00 0.00 0.00 60 1012.1
20260905234517 32 205 0.0 0.0 0.00 0.00 0.00 57 1012.0
20260905233033 33 205 0.0 0.0 0.00 0.00 0.00 56 1012.1
20260905231513 34 205 0.0 0.0 0.00 0.00 0.00 51 1011.9
20260905230035 35 205 0.0 1.6 0.00 0.00 0.00 48 1011.8
20260905224558 35 217 0.0 1.6 0.00 0.00 0.00 48 1011.7
20260905223032 36 177 0.0 1.6 0.00 0.00 0.00 42 1011.5
20260905221552 37 18 0.0 1.6 0.00 0.00 0.00 37 1011.4
20260905220028 38 289 0.0 4.8 0.00 0.00 0.00 35 1011.5
20260905214544 39 192 0.0 3.2 0.00 0.00 0.00 34 1011.4
20260905213006 38 205 0.0 3.2 0.00 0.00 0.00 37 1011.5
20260905211526 38 205 0.0 6.4 0.00 0.00 0.00 34 1011.7
20260905210106 38 293 0.0 8.0 0.00 0.00 0.00 36 1011.8
20260905204513 38 319 0.0 3.2 0.00 0.00 0.00 36 1012.0
20260905203032 38 208 0.0 4.8 0.00 0.00 0.00 36 1012.1
20260905201550 39 346 0.0 4.8 0.00 0.00 0.00 38 1012.2
20260905200004 38 186 0.0 11.3 0.00 0.00 0.00 37 1012.4
20260905194510 38 279 0.0 6.4 0.00 0.00 0.00 36 1012.5
20260905193037 38 212 0.0 6.4 0.00 0.00 0.00 38 1012.7
20260905191550 38 304 0.0 3.2 0.00 0.00 0.00 41 1012.9
20260905190025 37 179 0.0 6.4 0.00 0.00 0.00 40 1013.2
20260905184551 37 321 0.0 1.6 0.00 0.00 0.00 43 1013.5
20260905183016 37 349 0.0 3.2 0.00 0.00 0.00 44 1013.6
20260905181552 37 63 0.0 6.4 0.00 0.00 0.00 44 1013.7
20260905180018 37 280 0.0 1.6 0.00 0.00 0.00 42 1013.7
20260905174551 37 358 0.0 3.2 0.00 0.00 0.00 41 1013.7
20260905173026 37 19 0.0 3.2 0.00 0.00 0.00 40 1013.7
20260905171554 37 212 0.0 4.8 0.00 0.00 0.00 40 1014.0
20260905170021 37 184 0.0 1.6 0.00 0.00 0.00 43 1014.3
20260905164551 37 184 0.0 1.6 0.00 0.00 0.00 43 1014.5
20260905163013 36 338 0.0 0.0 0.00 0.00 0.00 45 1014.5
20260905161538 36 207 0.0 1.6 0.00 0.00 0.00 47 1014.7
20260905160010 36 205 0.0 4.8 0.00 0.00 0.00 47 1014.8
20260905154517 35 198 0.0 1.6 0.00 0.00 0.00 49 1014.8
20260905153040 35 251 0.0 1.6 0.00 0.00 0.00 51 1014.8
20260905151617 34 211 0.0 1.6 0.00 0.00 0.00 50 1014.8
20260905150020 33 245 0.0 1.6 0.00 0.00 0.00 59 1014.8
20260905144539 31 191 0.0 1.6 0.00 0.00 0.00 62 1014.8
20260905143007 30 164 0.0 3.2 0.00 0.00 0.00 67 1014.9
20260905141516 28 262 0.0 0.0 0.00 0.00 0.00 73 1014.9
20260905140027 27 262 0.0 0.0 0.00 0.00 0.00 74 1015.0
20260905134538 26 261 0.0 1.6 0.00 0.00 0.00 72 1015.2
20260905124527 23 127 0.0 0.0 0.00 0.00 0.00 37 1014.8
20260905123110 23 127 0.0 0.0 0.00 0.00 0.00 23 1014.8